Weather History for Hagerstown, MD

Change the Weather History Date:

Saturday, February 23, 2013

  Actual Average Record
Temperature  
Mean Temperature 38 °F -  
Max Temperature 44 °F 42 °F 61 °F (2012)
Min Temperature 31 °F 26 °F 11 °F (2011)
Degree Days  
Heating Degree Days 27    
Month to date heating degree days 760  
Moisture  
Dew Point 33 °F    
Average Humidity 90    
Maximum Humidity 100    
Minimum Humidity 79    
Precipitation  
Precipitation 0.00 in - - ()
Month to date precipitation 0.56  
Year to date precipitation 3.54  
Sea Level Pressure  
Sea Level Pressure 30.01 in    
Wind  
Wind Speed 4 mph (North)    
Max Wind Speed 9 mph    
Max Gust Speed 12 mph    
Visibility 5 miles    
Events Fog    
Averages and records for this station are not official NWS values.
T = Trace of Precipitation, MM = Missing Value Source: NWS Daily Summary

Daily Weather History Graph

Daily Weather History Graph

Search for Another Location

Airport:

Trip Planner

Search our weather history database for the weather conditions in past years. The results will help you decide how hot, cold, wet, or windy it might be!

Date:

Astronomy

Feb. 23, 2013 Rise Set
Actual Time 6:52 AM EST 5:56 PM EST
Civil Twilight 6:25 AM EST 6:23 PM EST
Nautical Twilight 5:53 AM EST 6:55 PM EST
Astronomical Twilight 5:22 AM EST 7:26 PM EST
Moon 4:05 PM EST (2/23) 5:13 AM EST (2/23)
Length of Visible Light 11h 58m
Length of Day
11h 04m
Waxing Gibbous, 95% of the Moon is Illuminated
Feb 23
Waxing Gibbous
Feb 25
Full
Mar 4
Last Quarter
Mar 11
New
Mar 19
First Quarter

Hourly Weather History & Observations

Time (EST) Temp. Windchill Dew Point Humidity Pressure Visibility Wind Dir Wind Speed Gust Speed Precip Events Conditions
12:53 AM 30.9 °F 24.3 °F 27.0 °F 85% 30.21 in 9.0 mi SSE 6.9 mph - N/A   Overcast
1:53 AM 32.0 °F 26.4 °F 28.0 °F 85% 30.19 in 9.0 mi SSE 5.8 mph - N/A   Overcast
2:53 AM 32.0 °F 25.6 °F 28.0 °F 85% 30.17 in 9.0 mi SSE 6.9 mph - N/A   Overcast
3:53 AM 32.0 °F 28.7 °F 28.9 °F 88% 30.14 in 8.0 mi SE 3.5 mph - N/A   Overcast
4:53 AM 32.0 °F 28.7 °F 30.0 °F 92% 30.13 in 8.0 mi SSE 3.5 mph - N/A   Overcast
5:53 AM 32.0 °F - 28.9 °F 88% 30.12 in 7.0 mi Calm Calm - N/A   Overcast
6:05 AM 33.8 °F - 30.2 °F 87% 30.07 in 6.0 mi Calm Calm - N/A   Overcast
6:45 AM 30.2 °F - 30.2 °F 100% 30.06 in 2.0 mi Calm Calm - N/A   Overcast
6:53 AM 30.9 °F 27.5 °F 30.0 °F 96% 30.12 in 2.0 mi North 3.5 mph - N/A   Overcast
7:23 AM 30.2 °F - 30.2 °F 100% 30.05 in 1.2 mi Calm Calm - N/A   Overcast
7:53 AM 32.0 °F 27.5 °F 30.9 °F 96% 30.10 in 1.0 mi East 4.6 mph - N/A   Overcast
8:53 AM 33.1 °F 30.0 °F 32.0 °F 96% 30.08 in 1.8 mi NNW 3.5 mph - N/A   Overcast
9:08 AM 32.0 °F 27.5 °F 32.0 °F 100% 30.02 in 0.5 mi NNW 4.6 mph - N/A Fog Fog
9:28 AM 32.0 °F 25.6 °F 32.0 °F 100% 30.02 in 0.2 mi NNW 6.9 mph - N/A Fog Fog
9:53 AM 32.0 °F 28.7 °F 32.0 °F 100% 30.06 in 0.5 mi North 3.5 mph - N/A Fog Fog
10:53 AM 33.1 °F 26.9 °F 33.1 °F 100% 30.06 in 0.5 mi NNW 6.9 mph - N/A Fog Fog
11:39 AM 33.8 °F 29.6 °F 33.8 °F 100% 29.98 in 1.0 mi North 4.6 mph - N/A   Overcast
11:53 AM 35.1 °F 31.0 °F 35.1 °F 100% 30.03 in 1.5 mi North 4.6 mph - N/A   Overcast
12:07 PM 35.6 °F 29.9 °F 35.6 °F 100% 29.97 in 2.0 mi NNW 6.9 mph - N/A   Overcast
12:40 PM 37.4 °F - 35.6 °F 93% 29.95 in 3.0 mi Calm Calm - N/A   Overcast
12:53 PM 37.0 °F 34.5 °F 35.1 °F 93% 30.00 in 4.0 mi North 3.5 mph - N/A   Overcast
1:53 PM 41.0 °F 38.0 °F 36.0 °F 82% 29.97 in 6.0 mi NNE 4.6 mph - N/A   Haze
2:15 PM 42.8 °F 41.1 °F 37.4 °F 81% 29.92 in 6.0 mi Variable 3.5 mph - N/A   Haze
2:53 PM 43.0 °F 40.3 °F 37.0 °F 80% 29.94 in 7.0 mi NW 4.6 mph - N/A   Overcast
3:53 PM 43.0 °F - 37.9 °F 82% 29.91 in 8.0 mi Calm Calm - N/A   Overcast
4:53 PM 42.1 °F 38.4 °F 37.0 °F 82% 29.91 in 8.0 mi NW 5.8 mph - N/A   Overcast
5:48 PM 39.2 °F 34.2 °F 35.6 °F 87% 29.85 in 2.5 mi NNW 6.9 mph - N/A   Scattered Clouds
5:53 PM 39.9 °F 35.1 °F 36.0 °F 86% 29.91 in 3.0 mi NNW 6.9 mph - N/A   Scattered Clouds
6:13 PM 39.2 °F 35.0 °F 35.6 °F 87% 29.85 in 7.0 mi NNW 5.8 mph - N/A   Mostly Cloudy
6:53 PM 39.9 °F 36.7 °F 37.0 °F 89% 29.91 in 8.0 mi NNW 4.6 mph - N/A   Overcast
7:53 PM 39.0 °F 34.0 °F 37.0 °F 93% 29.89 in 6.0 mi NNE 6.9 mph - N/A   Overcast
8:53 PM 39.0 °F 34.8 °F 37.0 °F 93% 29.89 in 7.0 mi North 5.8 mph - N/A   Overcast
10:53 PM 39.0 °F 34.8 °F 37.0 °F 93% 29.88 in 5.0 mi North 5.8 mph - N/A   Overcast
11:53 PM 37.9 °F - 37.9 °F 100% 29.86 in 4.0 mi Calm Calm - N/A   Overcast